Temp
6 6 6 6 6 6 6 6 6 6 6 6 6 6 6 6 6 6 6 6 6 6 6 6 6 6 6 6 6 6 6 6 6 6 6 6 6 6 6 6 6 6 7 7 6 6 6
6 6 6 6 6 6 6 6 6 6 6 6 6 6 6 6 6 6 6 6 6 6 6 6 6 6 6 7 7 7 6 6 6 6 6 6 6 6 6 6 6 6 6 6 6 6 6
6 6 6 6 6 6 6 6 6 6 6 6 6 6 6 6 6 5 6 6 6 6 6 6 6 6 6 6 6 6 6 6 6 6 6 6 5 5 5 5 6 6 6 6 6 6 6
5 5 5 6 6 6 6 6 6 6 6 5 5 6 6 6 6 6 6 6 6 6 6 6 6 6 6 6 6 6 6 6 6 6 6 6 5 5 5 5 5 5 5 6 6 6 6
5 5 5 5 5 5 5 5 5 5 5 5 5 6 6 6 6 6 6 6 6 6 6 6 6 6 6 6 6 5 5 5 6 6 6 5 5 5 5 5 5 5 5 5 5 6 5
4 5 5 5 5 5 5 5 5 5 5 5 5 5 5 5 5 5 5 6 6 6 6 6 6 6 6 6 5 5 5 5 5 5 5 5 5 5 5 4 4 4 4 4 4 5 4
4 4 4 5 5 5 5 5 5 5 5 5 5 5 5 5 5 5 6 6 6 6 6 6 6 6 5 5 5 5 5 5 5 5 4 4 5 5 4 4 4 3 3 3 4 4 3
4 4 4 5 5 5 5 5 5 5 5 5 5 5 5 5 5 6 6 5 5 5 5 5 4 4 4 4 4 4 4 4 4 4 4 4 4 4 4 4 3 3 3 3 3 3 3
4 4 4 4 4 5 4 5 5 5 5 5 5 5 5 5 5 5 5 4 4 4 4 4 3 3 3 3 3 3 3 3 3 3 3 3 3 3 3 3 3 3 3 3 2 2 2
4 4 4 4 4 4 4 4 5 4 4 4 5 5 5 5 5 4 4 4 4 4 4 3 3 2 3 3 3 3 2 3 3 2 2 3 3 3 2 2 2 2 2 2 1 1 1
3 4 4 4 4 4 4 4 4 4 4 4 4 4 4 4 4 4 4 3 4 4 -2 2 2 2 2 3 2 3 3 3 3 3 2 3 2 2 2 2 1 1 1 1 0 -0 -1
3 3 4 4 4 4 4 4 4 4 4 4 4 4 3 3 3 3 3 3 4 4 1 2 2 2 2 2 3 3 3 2 2 2 2 2 2 2 2 2 1 -0 -0 -0 -1 -2 -3
3 3 4 4 4 4 4 3 3 4 4 4 4 3 3 3 3 3 3 3 3 3 2 2 2 2 2 3 2 2 1 1 1 0 0 2 2 2 2 2 1 0 -0 -2 -3 -5 -3
3 3 4 4 4 4 3 3 3 3 3 3 3 3 3 3 3 3 3 3 3 2 2 2 2 2 2 2 1 1 0 -0 -0 -1 -1 -1 0 0 0 0 -0 -1 -1 -1 -3 -4 -2
3 3 3 3 3 3 3 3 3 3 3 3 3 3 3 3 3 2 2 2 2 2 1 1 1 1 0 1 0 -0 -1 -2 -2 -2 -2 -2 -1 -1 -1 -1 -2 -1 -2 -2 -2 -2 -4
3 3 3 3 2 2 3 3 3 3 3 2 2 3 2 2 2 2 2 1 1 1 1 0 0 -0 -1 -1 -2 -2 -2 -3 -4 -4 -5 -5 -5 -3 -3 -2 -3 -3 -3 -3 -3 -4 -4
2 2 2 2 2 2 3 2 2 3 2 2 2 2 2 2 2 1 1 1 1 1 -0 -1 -1 -2 -2 -3 -3 -4 -4 -5 -5 -6 -6 -7 -7 -5 -4 -5 -5 -5 -4 -5 -5 -4 -4
2 2 2 2 2 2 2 2 2 2 2 2 2 2 1 1 1 1 1 0 -0 0 -1 -1 -2 -2 -3 -4 -5 -6 -6 -7 -7 -8 -8 -8 -8 -8 -7 -6 -7 -6 -6 -7 -7 -6 -5
2 1 1 1 2 2 2 2 2 2 2 1 1 1 1 1 1 1 0 -0 -1 -1 -1 -2 -3 -4 -5 -6 -7 -8 -9 -9 -10 -10 -10 -10 -11 -11 -9 -8 -8 -8 -8 -11 -12 -10 -8
1 1 1 1 1 1 1 1 1 1 1 1 0 0 1 0 0 -0 -1 -1 -1 -1 -2 -3 -4 -5 -6 -7 -9 -9 -10 -10 -11 -11 -11 -11 -13 -13 -13 -13 -13 -13 -11 -9 -12 -13 -11
0 0 0 1 0 0 1 1 1 0 0 0 -0 -0 -0 -0 -0 -0 -1 -1 -2 -3 -3 -5 -6 -7 -8 -9 -10 -10 -11 -11 -12 -12 -13 -13 -14 -13 -13 -12 -12 -12 -12 -12 -13 -13 -12
-1 -0 -0 -0 -0 -0 -0 0 -0 -0 -0 -0 -0 -0 -1 -1 -1 -1 -1 -2 -3 -4 -5 -6 -7 -8 -10 -10 -11 -12 -12 -12 -13 -13 -13 -14 -14 -14 -13 -12 -13 -13 -14 -14 -13 -14 -13
-1 -1 -1 -1 -1 -1 -1 -1 -1 -1 -1 -1 -1 -1 -1 -1 -1 -2 -2 -3 -4 -5 -7 -8 -9 -10 -11 -12 -12 -12 -12 -12 -13 -13 -13 -13 -14 -15 -14 -13 -13 -14 -14 -14 -15 -15 -14
-2 -2 -2 -1 -1 -1 -1 -1 -1 -1 -1 -1 -1 -1 -1 -1 -2 -3 -4 -5 -6 -7 -9 -10 -11 -12 -12 -13 -13 -12 -12 -12 -12 -13 -13 -14 -14 -14 -14 -13 -15 -14 -15 -15 -15 -15 -14
-4 -2 -2 -2 -2 -2 -2 -2 -2 -1 -1 -1 -2 -2 -2 -2 -3 -4 -5 -6 -8 -9 -10 -12 -12 -13 -13 -13 -13 -13 -13 -13 -13 -13 -13 -14 -14 -15 -14 -15 -14 -14 -14 -15 -15 -16 -15
-4 -3 -3 -3 -3 -3 -2 -2 -2 -2 -2 -2 -2 -2 -2 -3 -4 -5 -7 -8 -10 -11 -12 -13 -13 -13 -13 -13 -14 -14 -14 -14 -14 -13 -14 -14 -14 -15 -15 -14 -15 -13 -14 -15 -15 -15 -15
-3 -4 -4 -4 -2 -2 -2 -2 -2 -2 -2 -3 -3 -3 -4 -4 -6 -7 -9 -10 -11 -12 -12 -13 -13 -13 -14 -14 -14 -15 -14 -14 -14 -15 -14 -14 -14 -15 -15 -15 -14 -14 -15 -15 -16 -16 -16
-5 -5 -4 -4 -3 -3 -3 -3 -3 -3 -3 -3 -4 -5 -5 -7 -8 -10 -11 -11 -12 -13 -13 -14 -14 -15 -15 -15 -15 -15 -15 -15 -15 -15 -15 -15 -15 -15 -16 -16 -17 -16 -16 -17 -18 -17 -17
-5 -5 -5 -4 -4 -3 -3 -4 -4 -4 -4 -4 -6 -7 -8 -9 -10 -11 -12 -13 -13 -14 -14 -15 -15 -15 -16 -16 -16 -16 -15 -15 -15 -15 -15 -15 -16 -16 -17 -16 -16 -17 -17 -18 -18 -18 -18
Height
3145 3146 3146 3145 3145 3145 3144 3145 3144 3143 3143 3142 3141 3139 3139 3138 3136 3135 3133 3132 3131 3129 3128 3126 3125 3124 3123 3123 3123 3121 3120 3121 3121 3121 3121 3121 3120 3120 3120 3119 3120 3119 3120 3120 3120 3119 3119
3144 3145 3144 3144 3144 3143 3143 3143 3143 3142 3142 3141 3140 3138 3137 3136 3135 3133 3131 3130 3129 3127 3126 3124 3123 3121 3122 3121 3120 3119 3119 3119 3119 3119 3118 3118 3118 3118 3118 3118 3118 3117 3117 3116 3116 3116 3115
3144 3143 3143 3143 3142 3142 3142 3142 3141 3140 3139 3139 3138 3137 3135 3134 3133 3131 3129 3128 3126 3125 3123 3121 3120 3119 3118 3119 3117 3117 3116 3116 3116 3116 3116 3116 3115 3116 3115 3115 3114 3114 3114 3113 3113 3113 3111
3141 3142 3142 3141 3140 3140 3140 3140 3140 3139 3138 3137 3136 3135 3134 3132 3130 3128 3127 3125 3124 3122 3120 3118 3117 3116 3115 3114 3113 3113 3113 3114 3114 3114 3113 3113 3113 3112 3112 3112 3111 3110 3110 3109 3109 3108 3106
3140 3140 3139 3139 3139 3139 3138 3138 3137 3137 3136 3135 3134 3132 3131 3129 3127 3125 3123 3122 3120 3119 3117 3115 3114 3113 3112 3110 3110 3110 3110 3110 3110 3110 3109 3109 3109 3109 3109 3108 3107 3105 3104 3104 3105 3103 3101
3137 3139 3138 3137 3137 3137 3137 3136 3136 3135 3134 3133 3131 3130 3128 3126 3124 3122 3120 3118 3117 3115 3114 3112 3111 3112 3110 3109 3107 3107 3107 3106 3106 3105 3105 3105 3104 3104 3104 3104 3102 3102 3101 3099 3100 3099 3095
3136 3135 3136 3137 3136 3136 3135 3134 3134 3133 3132 3130 3128 3127 3125 3123 3121 3118 3117 3115 3116 3113 3109 3108 3107 3105 3104 3103 3103 3102 3101 3101 3100 3100 3100 3100 3100 3099 3099 3098 3097 3097 3096 3095 3095 3095 3089
3136 3135 3134 3134 3135 3134 3133 3132 3131 3130 3129 3127 3125 3123 3122 3120 3117 3115 3113 3110 3109 3108 3104 3101 3100 3099 3098 3098 3098 3098 3098 3098 3098 3097 3097 3098 3096 3095 3095 3095 3094 3092 3091 3090 3089 3088 3085
3133 3133 3132 3131 3132 3132 3132 3130 3129 3128 3127 3125 3122 3120 3118 3115 3113 3110 3108 3106 3104 3102 3101 3098 3097 3096 3097 3097 3096 3096 3097 3096 3096 3096 3096 3095 3095 3093 3092 3092 3090 3089 3088 3086 3085 3082 3078
3131 3132 3133 3132 3130 3128 3129 3128 3127 3125 3123 3121 3119 3117 3114 3111 3111 3106 3104 3102 3101 3099 3097 3098 3097 3097 3096 3095 3096 3096 3095 3097 3095 3094 3093 3091 3090 3090 3089 3088 3088 3083 3083 3081 3079 3078 3074
3128 3129 3128 3129 3127 3126 3125 3125 3124 3122 3120 3118 3116 3113 3111 3108 3106 3104 3103 3100 3099 3098 3098 3098 3096 3095 3095 3096 3096 3095 3094 3092 3090 3089 3090 3088 3085 3084 3082 3083 3082 3080 3077 3076 3074 3073 3070
3126 3127 3127 3126 3126 3124 3123 3122 3120 3119 3117 3114 3112 3110 3108 3106 3103 3102 3099 3098 3097 3098 3093 3095 3094 3094 3094 3093 3093 3091 3090 3088 3084 3081 3079 3079 3079 3078 3075 3075 3074 3073 3071 3070 3067 3067 3064
3123 3123 3123 3124 3123 3121 3121 3120 3116 3115 3113 3111 3109 3107 3104 3102 3101 3099 3097 3097 3097 3093 3095 3095 3093 3092 3091 3089 3087 3086 3086 3085 3084 3079 3074 3073 3071 3069 3069 3068 3068 3067 3067 3067 3065 3064 3055
3119 3120 3120 3120 3119 3118 3117 3116 3115 3112 3110 3107 3105 3103 3101 3099 3097 3096 3096 3096 3095 3093 3091 3091 3091 3090 3088 3086 3085 3084 3083 3082 3078 3078 3073 3068 3061 3065 3065 3065 3064 3063 3064 3064 3061 3057 3049
3116 3115 3115 3116 3115 3114 3113 3112 3111 3109 3107 3104 3102 3100 3098 3097 3095 3095 3095 3094 3092 3092 3091 3090 3088 3086 3085 3085 3085 3082 3078 3076 3074 3073 3075 3069 3060 3060 3061 3059 3060 3057 3055 3056 3053 3049 3046
3111 3111 3111 3111 3111 3110 3109 3108 3107 3105 3103 3101 3099 3097 3096 3095 3093 3092 3092 3091 3090 3090 3089 3088 3086 3084 3082 3081 3081 3080 3077 3074 3072 3071 3069 3067 3059 3053 3053 3054 3056 3055 3053 3051 3048 3045 3036
3106 3107 3106 3106 3107 3106 3105 3104 3102 3100 3098 3098 3096 3094 3093 3092 3091 3090 3088 3087 3086 3086 3086 3086 3082 3081 3078 3077 3075 3075 3073 3069 3068 3068 3067 3064 3061 3046 3048 3050 3049 3048 3046 3045 3042 3039 3030
3101 3102 3102 3102 3102 3101 3100 3099 3099 3096 3095 3094 3093 3092 3090 3089 3089 3086 3085 3084 3084 3082 3082 3080 3078 3075 3073 3071 3070 3070 3068 3065 3062 3062 3062 3060 3056 3046 3039 3040 3043 3042 3039 3038 3034 3029 3022
3096 3097 3098 3098 3099 3097 3096 3095 3095 3093 3091 3090 3089 3088 3086 3086 3084 3082 3081 3080 3079 3078 3077 3074 3073 3071 3068 3067 3069 3064 3062 3061 3061 3061 3057 3053 3051 3045 3031 3035 3032 3033 3032 3033 3031 3027 3016
3091 3092 3094 3094 3093 3093 3092 3090 3089 3088 3087 3087 3086 3085 3083 3081 3080 3079 3078 3076 3074 3072 3070 3070 3068 3066 3064 3062 3062 3060 3059 3058 3055 3054 3052 3049 3047 3047 3044 3041 3038 3030 3028 3027 3030 3024 3017
3086 3088 3090 3090 3089 3088 3088 3086 3085 3084 3082 3083 3082 3080 3079 3078 3076 3075 3074 3071 3069 3067 3065 3063 3060 3060 3058 3057 3054 3053 3053 3051 3049 3047 3046 3045 3042 3041 3039 3034 3030 3025 3020 3016 3012 3010 3011
3082 3082 3085 3086 3086 3084 3083 3082 3080 3080 3079 3079 3078 3077 3075 3074 3072 3070 3068 3066 3064 3062 3061 3057 3056 3054 3053 3052 3050 3048 3046 3045 3043 3043 3041 3041 3039 3036 3031 3027 3024 3019 3017 3012 3003 2999 2996
3077 3079 3079 3081 3082 3080 3079 3078 3077 3076 3075 3074 3073 3073 3070 3069 3067 3065 3063 3060 3058 3057 3054 3052 3051 3051 3050 3048 3046 3045 3042 3040 3039 3039 3038 3038 3036 3033 3027 3025 3019 3018 3014 3010 3007 3000 2994
3074 3075 3075 3076 3077 3076 3075 3074 3073 3072 3071 3071 3068 3067 3066 3063 3061 3059 3057 3055 3053 3052 3051 3048 3046 3046 3047 3045 3044 3041 3039 3038 3037 3037 3036 3035 3034 3031 3026 3022 3020 3017 3012 3010 3006 3002 2999
3068 3074 3070 3073 3073 3073 3071 3070 3070 3069 3067 3065 3064 3063 3060 3057 3056 3054 3052 3049 3047 3046 3046 3044 3045 3044 3042 3043 3041 3038 3037 3037 3035 3035 3034 3033 3031 3028 3026 3022 3018 3012 3009 3006 3002 2999 2997
3066 3069 3069 3068 3069 3070 3068 3067 3066 3064 3063 3061 3060 3057 3056 3054 3050 3049 3047 3046 3044 3042 3042 3042 3041 3041 3040 3039 3038 3036 3035 3034 3033 3033 3032 3030 3028 3028 3024 3021 3016 3009 3007 3007 3003 2998 2993
3062 3063 3063 3064 3065 3065 3065 3063 3062 3060 3058 3057 3054 3053 3050 3048 3046 3044 3042 3042 3041 3041 3040 3040 3039 3038 3037 3037 3037 3035 3034 3034 3031 3030 3028 3026 3024 3022 3021 3018 3013 3007 3004 3004 3003 3001 2991
3060 3060 3060 3061 3061 3060 3061 3060 3057 3055 3054 3052 3049 3046 3046 3043 3041 3040 3037 3038 3037 3038 3038 3037 3036 3036 3035 3034 3035 3034 3032 3031 3029 3027 3025 3024 3023 3020 3018 3014 3009 3006 3003 3002 2998 2993 2987
3057 3058 3058 3057 3056 3056 3056 3055 3053 3051 3048 3047 3044 3042 3039 3038 3037 3035 3034 3033 3034 3034 3035 3034 3034 3033 3033 3033 3033 3031 3030 3027 3025 3024 3023 3022 3021 3019 3018 3012 3007 3001 2998 2995 2990 2986 2982
Wind_Speed
4 4 3 3 4 5 6 7 8 9 9 8 8 8 9 11 13 15 16 16 15 15 14 13 12 11 9 7 10 10 9 10 11 11 11 10 10 10 10 9 11 13 12 12 13 12 14
8 6 5 5 6 6 7 8 9 9 9 8 8 9 11 13 16 17 17 16 16 15 14 13 12 12 12 12 10 10 9 8 8 9 9 10 11 12 13 13 14 15 14 13 15 15 17
10 9 8 8 8 8 9 9 9 9 8 9 10 12 15 16 16 16 15 16 17 16 16 15 14 13 14 15 12 12 10 8 6 8 10 12 12 12 13 14 14 14 15 16 17 17 21
10 10 9 9 9 9 9 9 9 9 9 11 13 14 15 16 16 16 17 17 17 17 17 16 14 14 15 14 14 13 10 8 7 10 13 13 13 14 15 15 17 18 20 20 18 17 21
11 11 10 10 9 9 8 8 8 9 11 12 13 14 16 15 17 18 18 17 17 17 16 17 15 14 13 9 7 8 12 14 17 20 18 16 16 17 17 17 18 18 16 20 19 20 22
11 11 11 10 9 9 8 8 9 10 13 15 16 17 17 19 19 19 18 19 19 20 21 18 15 8 9 9 12 15 19 22 23 20 17 17 17 18 17 17 16 14 17 20 21 21 24
11 10 10 10 10 10 9 9 11 13 15 16 16 18 19 19 18 18 20 22 23 24 20 20 19 20 19 19 21 20 20 20 20 18 15 15 16 15 14 15 16 17 20 23 22 20 28
12 10 10 9 10 11 11 13 14 15 15 16 18 19 19 20 21 24 24 23 22 22 20 21 17 14 15 16 14 10 7 7 6 7 7 10 12 11 7 11 13 16 20 24 24 19 22
12 12 11 11 11 13 13 13 15 15 16 18 19 20 22 24 24 24 22 21 19 17 16 13 6 4 3 3 2 3 3 4 7 8 9 12 14 17 14 11 15 18 19 21 21 23 29
12 13 14 13 13 13 15 15 14 15 17 18 20 22 23 23 21 19 17 16 14 14 8 4 3 1 2 2 1 4 7 12 14 15 18 11 7 10 17 23 23 28 24 22 23 22 16
13 13 13 15 15 15 13 14 15 18 19 20 22 21 20 20 18 17 15 13 12 10 3 3 1 1 1 3 5 8 15 19 20 21 21 17 21 21 23 19 13 22 24 22 23 26 26
15 14 15 15 16 15 15 14 17 19 20 21 20 20 19 18 17 15 13 13 11 4 2 2 2 3 5 8 12 18 19 19 19 16 20 22 20 26 31 28 26 24 24 21 20 18 7
16 15 16 18 16 16 17 18 17 19 20 20 20 19 18 17 15 14 12 10 6 3 4 3 3 7 13 18 19 17 13 9 14 17 19 32 31 17 16 15 12 11 10 4 4 3 7
17 17 17 17 17 17 17 18 19 19 19 20 20 18 17 16 13 10 9 8 4 4 7 10 12 16 18 15 11 8 16 19 18 19 25 18 16 5 7 9 9 10 13 8 6 5 5
18 18 17 18 18 17 17 17 18 18 20 20 19 18 15 13 11 9 8 4 3 6 7 10 18 12 6 6 11 16 15 16 18 11 8 10 16 10 11 15 15 20 25 26 24 26 9
19 19 18 18 17 15 16 16 18 19 19 19 17 15 12 11 9 10 9 6 8 10 14 16 13 8 10 16 18 14 8 11 12 13 14 11 24 16 12 16 18 12 20 14 13 5 15
20 19 18 16 15 15 17 17 18 19 19 18 15 13 11 10 12 10 9 8 10 11 12 10 14 17 23 23 20 16 9 17 18 17 16 17 19 36 34 31 18 12 15 16 20 20 12
20 20 18 16 15 15 16 17 19 18 17 16 14 13 12 12 11 11 9 9 8 12 17 19 21 21 19 19 17 13 13 14 18 20 22 23 22 30 45 42 29 24 26 20 12 16 16
21 19 18 16 17 15 16 17 18 16 15 14 13 13 10 11 11 13 9 10 16 18 17 17 16 21 22 21 13 9 12 14 16 17 16 26 8 16 29 21 16 14 18 23 31 19 17
20 18 18 17 16 16 17 16 16 15 14 13 12 9 12 13 7 9 15 16 16 17 19 19 20 22 22 21 19 15 21 19 25 25 26 22 12 11 17 26 32 41 46 47 33 26 27
19 18 16 17 15 16 18 16 15 14 13 13 11 10 11 13 15 16 17 16 18 19 20 20 20 20 22 18 24 14 20 24 21 7 10 12 18 19 21 23 26 30 31 34 36 38 30
19 16 15 15 15 16 17 15 14 13 13 12 12 13 13 14 16 16 17 17 18 19 18 21 19 18 18 17 17 19 21 20 15 12 13 12 12 17 26 22 21 30 21 20 23 26 28
17 15 12 14 15 16 16 14 13 13 13 12 12 12 12 14 15 17 18 18 17 17 18 17 19 16 14 12 12 15 16 17 13 9 11 7 14 18 9 22 21 4 15 16 19 12 5
13 12 11 13 14 15 14 13 13 13 13 12 12 13 14 15 15 16 16 15 16 15 13 15 14 14 12 14 17 15 10 2 1 1 4 7 15 9 13 18 3 3 19 19 21 12 14
13 19 12 15 14 14 13 12 13 13 13 13 13 14 15 15 15 15 14 15 15 14 10 10 9 11 13 13 15 8 3 2 5 3 9 7 17 10 6 15 15 3 19 25 28 15 14
15 15 12 9 12 13 13 13 13 13 13 13 15 16 16 15 14 15 14 13 12 8 7 5 7 10 14 14 10 3 2 4 3 5 9 11 12 11 13 6 4 16 15 24 15 11 20
12 10 10 11 14 14 14 14 14 14 14 15 16 17 16 15 13 12 12 11 7 5 5 6 10 12 8 8 5 2 4 6 3 9 9 14 13 11 12 8 12 18 16 29 8 16 27
10 8 10 11 15 14 14 13 14 15 16 17 18 17 16 15 10 11 11 7 6 4 5 11 10 5 5 2 4 3 7 5 14 15 12 12 8 6 9 8 7 17 32 22 24 24 29
16 9 12 12 12 14 14 14 14 16 18 19 17 16 16 14 11 11 6 7 7 7 12 10 7 5 3 3 4 7 12 14 12 7 10 7 9 14 13 14 27 26 26 29 25 28 31
Wind_Direction
236 246 275 309 322 328 328 326 326 325 327 331 335 338 337 336 337 339 338 340 342 340 335 320 316 318 323 309 323 298 283 273 277 276 284 283 283 280 273 268 263 258 262 267 266 274 274
240 252 265 284 299 310 311 313 315 319 321 325 327 327 326 327 327 327 327 327 330 331 332 324 313 301 298 297 310 316 292 286 281 272 278 283 286 286 282 279 273 272 269 269 270 275 284
248 258 270 282 293 301 305 308 309 313 314 317 319 322 323 323 324 323 323 323 324 323 323 320 319 312 297 293 291 301 287 271 278 286 284 285 281 281 283 284 279 280 279 278 281 281 284
248 258 267 277 283 290 296 302 308 313 315 319 320 322 323 321 320 322 323 322 320 321 321 316 313 308 297 288 283 281 263 252 279 303 295 289 284 280 282 285 282 284 284 283 286 284 286
255 256 262 271 280 287 294 300 312 316 315 315 313 313 312 314 317 315 315 315 316 316 316 315 312 304 292 287 285 263 254 264 276 294 290 281 281 280 283 286 285 281 279 283 285 284 285
254 267 269 270 276 281 288 297 304 306 308 308 312 313 315 316 316 314 314 316 315 313 313 313 308 297 286 276 279 278 276 277 281 283 281 276 275 276 285 287 277 279 280 280 282 287 288
263 265 273 279 284 291 286 286 296 307 309 309 310 312 312 312 313 313 313 312 313 313 310 305 295 283 275 271 278 278 282 281 279 278 274 271 271 282 276 276 277 280 280 283 291 294 288
273 273 274 278 282 284 286 289 291 301 305 308 310 311 312 314 315 313 311 311 311 308 308 304 299 290 277 279 284 287 285 282 290 295 289 286 289 282 280 287 281 283 290 292 296 293 284
266 268 267 273 284 290 291 292 297 305 307 309 311 313 315 315 315 315 313 313 312 311 309 299 310 324 348 346 50 36 9 339 327 319 312 302 292 287 288 290 296 294 294 300 297 295 289
262 266 278 283 288 290 293 296 298 301 306 309 311 314 316 318 320 321 321 321 320 323 306 311 323 341 3 359 48 2 352 332 324 315 312 310 293 293 293 292 297 294 298 296 294 293 290
266 266 271 282 287 287 287 291 297 304 308 310 314 318 321 322 325 326 327 325 325 326 9 301 246 231 313 346 313 311 319 312 309 304 299 295 294 295 289 301 294 291 295 295 292 290 289
272 281 277 282 287 288 290 294 301 305 307 311 316 320 322 322 320 321 325 323 321 309 254 258 257 263 284 300 300 301 305 307 307 301 298 303 298 295 295 291 283 278 284 290 286 272 257
269 268 275 284 286 288 291 298 300 304 309 314 318 321 323 321 319 319 318 320 310 225 286 276 275 297 303 305 305 306 312 322 316 312 303 304 305 300 298 287 280 261 271 297 277 211 239
266 270 274 279 284 286 291 295 302 309 312 314 319 322 323 320 320 320 317 315 257 261 264 284 299 306 304 305 309 311 309 304 295 293 294 304 300 281 277 266 265 267 265 239 252 232 251
263 264 270 276 279 282 285 294 303 308 313 316 320 320 321 317 316 316 318 306 262 275 284 298 309 311 299 290 300 306 306 296 289 283 263 294 280 278 270 247 265 278 273 282 258 262 277
259 263 269 274 275 278 285 295 302 308 314 316 318 317 318 312 312 311 312 287 264 280 291 300 301 284 287 292 298 302 291 288 280 273 270 274 285 291 268 269 263 275 283 277 257 254 258
257 262 265 265 265 276 287 295 301 307 315 313 312 312 309 302 304 301 296 278 285 291 292 292 287 286 291 296 300 302 262 275 273 264 272 278 275 273 278 286 295 292 276 274 282 262 262
251 260 259 256 262 273 284 295 302 307 308 306 305 306 303 300 297 296 295 294 288 291 294 292 289 288 289 293 298 297 252 251 282 294 296 287 286 286 282 286 293 286 282 284 263 278 258
251 252 253 257 266 272 284 295 300 303 302 301 299 300 299 302 295 297 289 290 294 294 290 286 281 289 291 291 302 278 273 275 283 295 301 305 272 309 301 303 268 300 269 296 311 313 264
246 245 250 257 266 279 285 293 298 299 300 297 301 301 303 301 290 295 299 296 289 289 287 286 285 287 289 292 293 282 286 287 294 296 293 290 266 257 280 284 290 297 290 280 290 285 288
237 240 249 260 272 281 286 292 295 297 296 297 306 306 305 294 298 298 294 288 288 288 287 290 290 291 298 303 307 303 309 310 320 346 320 319 305 310 311 306 303 304 299 304 292 284 262
233 234 249 261 274 285 289 291 294 298 296 300 305 307 303 301 300 294 291 290 288 287 288 290 289 295 302 309 312 326 324 325 316 320 332 331 314 322 318 332 320 308 320 327 307 291 281
232 236 250 267 275 283 288 292 292 296 301 306 311 306 305 308 299 295 292 291 291 293 294 291 298 307 315 313 324 327 317 308 297 301 332 312 329 328 290 331 325 57 7 351 358 14 14
232 250 257 278 282 281 282 288 295 300 305 308 309 312 311 305 299 294 294 299 299 301 299 301 310 320 322 323 323 326 314 310 281 348 323 310 335 329 300 338 356 246 20 12 346 330 4
240 257 269 273 281 283 287 293 296 302 305 312 315 315 314 309 304 300 299 299 304 308 306 306 314 316 322 320 325 338 333 356 321 342 353 294 330 309 303 314 303 345 1 359 352 315 354
234 248 263 283 294 292 296 297 301 303 307 312 317 319 318 317 310 303 302 308 312 306 304 294 306 313 310 309 326 301 285 316 306 302 334 320 313 288 304 306 287 288 310 353 325 269 325
235 233 263 280 282 287 291 295 299 306 314 319 321 321 322 323 315 305 308 309 302 285 251 278 302 306 301 309 314 286 260 289 276 304 301 320 318 285 287 298 287 291 309 331 316 303 314
224 233 251 271 275 282 289 296 307 315 321 325 325 327 330 329 323 318 315 310 294 277 279 311 315 308 307 269 288 273 272 265 303 301 293 292 296 287 300 286 276 303 311 327 315 311 309
263 259 267 271 283 290 296 307 316 320 324 329 331 329 335 338 329 319 299 299 276 291 307 315 307 314 287 297 269 297 286 305 298 319 299 267 290 294 290 279 297 307 310 313 314 311 311